When you browse on this site, cookies collect data to enhance your experience and personalize the content and advertising you see.
Visit our Privacy Policy to learn more. By continuing to use the site, you agree to this use of cookies and data.
  • In Hungary
  • List of Countries
  • For 7 days
  • Water Temperature
  • Satellite Maps
  • Weather Map
  • News
  • Weather Widgets
  • user-avatar
    Login

    Hourly Weather Nouakchott

    Today, 18 January, Friday

    Time Temperature Precipitation Wind Pressure Humidity
    00:00 +20°C° 0 mm 7 mps 762 mmHg 18%
    01:00 +18°C° 0 mm 8 mps 762 mmHg 23%
    02:00 +18°C° 0 mm 9 mps 762 mmHg 28%
    03:00 +17°C° 0 mm 9 mps 762 mmHg 31%
    04:00 +17°C° 0 mm 9 mps 762 mmHg 33%
    05:00 +16°C° 0 mm 9 mps 762 mmHg 34%
    06:00 +16°C° 0 mm 9 mps 762 mmHg 36%
    07:00 +17°C° 0 mm 9 mps 763 mmHg 39%
    08:00 +17°C° 0 mm 9 mps 763 mmHg 41%
    09:00 +19°C° 0 mm 9 mps 763 mmHg 37%
    10:00 +22°C° 0 mm 9 mps 763 mmHg 33%
    11:00 +23°C° 0 mm 9 mps 764 mmHg 28%
    12:00 +24°C° 0 mm 8 mps 763 mmHg 25%
    13:00 +26°C° 0 mm 8 mps 763 mmHg 22%
    14:00 +27°C° 0 mm 7 mps 762 mmHg 19%
    15:00 +27°C° 0 mm 7 mps 762 mmHg 19%
    16:00 +26°C° 0 mm 7 mps 762 mmHg 19%
    17:00 +26°C° 0 mm 7 mps 762 mmHg 19%
    18:00 +24°C° 0 mm 7 mps 762 mmHg 21%
    19:00 +22°C° 0 mm 7 mps 763 mmHg 24%
    20:00 +21°C° 0 mm 7 mps 763 mmHg 26%
    21:00 +20°C° 0 mm 7 mps 763 mmHg 27%
    22:00 +18°C° 0 mm 7 mps 764 mmHg 28%
    23:00 +18°C° 0 mm 8 mps 764 mmHg 29%

    Tomorrow, 19 January, Saturday

    Time Temperature Precipitation Wind Pressure Humidity
    00:00 +17°C° 0 mm 8 mps 764 mmHg 31%
    01:00 +17°C° 0 mm 8 mps 764 mmHg 33%
    02:00 +16°C° 0 mm 8 mps 764 mmHg 35%
    03:00 +16°C° 0 mm 8 mps 764 mmHg 36%
    04:00 +15°C° 0 mm 8 mps 764 mmHg 38%
    05:00 +15°C° 0 mm 8 mps 764 mmHg 39%
    06:00 +15°C° 0 mm 8 mps 764 mmHg 39%
    07:00 +15°C° 0 mm 8 mps 764 mmHg 39%
    08:00 +15°C° 0 mm 8 mps 765 mmHg 40%
    09:00 +18°C° 0 mm 8 mps 765 mmHg 35%
    10:00 +21°C° 0 mm 8 mps 765 mmHg 30%
    11:00 +23°C° 0 mm 8 mps 765 mmHg 25%
    12:00 +24°C° 0 mm 8 mps 764 mmHg 22%
    13:00 +26°C° 0 mm 7 mps 763 mmHg 20%
    14:00 +27°C° 0 mm 6 mps 763 mmHg 18%
    15:00 +27°C° 0 mm 6 mps 763 mmHg 18%
    16:00 +27°C° 0 mm 6 mps 762 mmHg 17%
    17:00 +27°C° 0 mm 5 mps 762 mmHg 17%
    18:00 +25°C° 0 mm 5 mps 763 mmHg 19%
    19:00 +22°C° 0 mm 4 mps 763 mmHg 21%
    20:00 +21°C° 0 mm 4 mps 763 mmHg 23%
    21:00 +20°C° 0 mm 4 mps 764 mmHg 23%
    22:00 +20°C° 0 mm 5 mps 764 mmHg 24%
    23:00 +19°C° 0 mm 5 mps 764 mmHg 25%

    Day after tomorrow, 20 January, Sunday

    Time Temperature Precipitation Wind Pressure Humidity
    00:00 +17°C° 0 mm 5 mps 764 mmHg 25%
    01:00 +17°C° 0 mm 5 mps 764 mmHg 26%
    02:00 +16°C° 0 mm 5 mps 763 mmHg 26%
    03:00 +15°C° 0 mm 6 mps 763 mmHg 26%
    04:00 +15°C° 0 mm 6 mps 763 mmHg 26%
    05:00 +14°C° 0 mm 7 mps 763 mmHg 26%
    06:00 +15°C° 0 mm 7 mps 764 mmHg 24%
    07:00 +15°C° 0 mm 7 mps 764 mmHg 23%
    08:00 +15°C° 0 mm 7 mps 765 mmHg 21%
    09:00 +18°C° 0 mm 7 mps 765 mmHg 18%
    10:00 +22°C° 0 mm 7 mps 765 mmHg 15%
    11:00 +24°C° 0 mm 7 mps 765 mmHg 12%
    12:00 +26°C° 0 mm 6 mps 764 mmHg 11%
    13:00 +27°C° 0 mm 5 mps 763 mmHg 10%
    14:00 +29°C° 0 mm 5 mps 762 mmHg 9%
    15:00 +28°C° 0 mm 5 mps 762 mmHg 9%
    16:00 +28°C° 0 mm 4 mps 762 mmHg 9%
    17:00 +27°C° 0 mm 4 mps 762 mmHg 9%
    18:00 +26°C° 0 mm 4 mps 762 mmHg 10%
    19:00 +23°C° 0 mm 4 mps 763 mmHg 11%
    20:00 +21°C° 0 mm 4 mps 763 mmHg 11%
    21:00 +21°C° 0 mm 4 mps 763 mmHg 12%
    22:00 +20°C° 0 mm 4 mps 763 mmHg 12%
    23:00 +20°C° 0 mm 4 mps 763 mmHg 12%

    21 January, Monday

    Time Temperature Precipitation Wind Pressure Humidity
    00:00 +19°C° 0 mm 4 mps 763 mmHg 13%
    01:00 +19°C° 0 mm 5 mps 763 mmHg 13%
    02:00 +17°C° 0 mm 5 mps 763 mmHg 14%
    03:00 +17°C° 0 mm 5 mps 763 mmHg 13%
    04:00 +16°C° 0 mm 5 mps 763 mmHg 12%
    05:00 +15°C° 0 mm 6 mps 762 mmHg 12%
    06:00 +16°C° 0 mm 6 mps 763 mmHg 11%
    07:00 +16°C° 0 mm 6 mps 763 mmHg 11%
    08:00 +16°C° 0 mm 6 mps 764 mmHg 10%
    09:00 +20°C° 0 mm 6 mps 764 mmHg 9%
    10:00 +22°C° 0 mm 6 mps 764 mmHg 7%
    11:00 +26°C° 0 mm 6 mps 764 mmHg 6%
    12:00 +27°C° 0 mm 5 mps 763 mmHg 6%
    13:00 +28°C° 0 mm 5 mps 762 mmHg 5%
    14:00 +29°C° 0 mm 4 mps 762 mmHg 5%
    15:00 +28°C° 0 mm 4 mps 762 mmHg 5%
    16:00 +28°C° 0 mm 4 mps 762 mmHg 5%
    17:00 +27°C° 0 mm 4 mps 762 mmHg 5%
    18:00 +26°C° 0 mm 4 mps 762 mmHg 9%
    19:00 +23°C° 0 mm 4 mps 763 mmHg 12%
    20:00 +21°C° 0 mm 5 mps 763 mmHg 15%
    21:00 +21°C° 0 mm 5 mps 763 mmHg 19%
    22:00 +20°C° 0 mm 6 mps 763 mmHg 22%
    23:00 +20°C° 0 mm 6 mps 763 mmHg 25%

    22 January, Tuesday

    Time Temperature Precipitation Wind Pressure Humidity
    00:00 +20°C° 0 mm 6 mps 763 mmHg 29%
    01:00 +19°C° 0 mm 6 mps 763 mmHg 32%
    02:00 +19°C° 0 mm 6 mps 762 mmHg 36%
    03:00 +17°C° 0 mm 6 mps 762 mmHg 40%
    04:00 +17°C° 0 mm 7 mps 762 mmHg 45%
    05:00 +17°C° 0 mm 8 mps 762 mmHg 49%
    06:00 +17°C° 0 mm 8 mps 763 mmHg 50%
    07:00 +17°C° 0 mm 8 mps 763 mmHg 52%
    08:00 +17°C° 0 mm 9 mps 764 mmHg 53%
    09:00 +20°C° 0 mm 8 mps 764 mmHg 47%
    10:00 +22°C° 0 mm 8 mps 764 mmHg 40%
    11:00 +24°C° 0 mm 8 mps 764 mmHg 34%
    12:00 +26°C° 0 mm 7 mps 763 mmHg 31%
    13:00 +27°C° 0 mm 6 mps 762 mmHg 28%
    14:00 +28°C° 0 mm 6 mps 762 mmHg 25%
    15:00 +28°C° 0 mm 5 mps 762 mmHg 24%
    16:00 +27°C° 0 mm 5 mps 761 mmHg 24%
    17:00 +27°C° 0 mm 5 mps 761 mmHg 23%
    18:00 +26°C° 0 mm 5 mps 762 mmHg 24%
    19:00 +25°C° 0 mm 5 mps 762 mmHg 25%
    20:00 +22°C° 0 mm 5 mps 763 mmHg 26%
    21:00 +22°C° 0 mm 5 mps 763 mmHg 25%
    22:00 +21°C° 0 mm 6 mps 763 mmHg 24%
    23:00 +20°C° 0 mm 6 mps 763 mmHg 23%

    23 January, Wednesday

    Time Temperature Precipitation Wind Pressure Humidity
    00:00 +20°C° 0 mm 6 mps 763 mmHg 22%
    01:00 +18°C° 0 mm 7 mps 762 mmHg 22%
    02:00 +18°C° 0 mm 7 mps 762 mmHg 21%
    03:00 +18°C° 0 mm 7 mps 762 mmHg 21%
    04:00 +17°C° 0 mm 7 mps 762 mmHg 22%
    05:00 +17°C° 0 mm 7 mps 762 mmHg 23%
    06:00 +17°C° 0 mm 7 mps 762 mmHg 24%
    07:00 +17°C° 0 mm 7 mps 763 mmHg 25%
    08:00 +17°C° 0 mm 7 mps 763 mmHg 26%
    09:00 +20°C° 0 mm 7 mps 763 mmHg 23%
    10:00 +23°C° 0 mm 7 mps 763 mmHg 21%
    11:00 +26°C° 0 mm 7 mps 763 mmHg 19%
    12:00 +27°C° 0 mm 7 mps 762 mmHg 16%
    13:00 +28°C° 0 mm 6 mps 762 mmHg 14%
    14:00 +29°C° 0 mm 6 mps 761 mmHg 12%
    15:00 +29°C° 0 mm 5 mps 761 mmHg 12%
    16:00 +28°C° 0 mm 5 mps 760 mmHg 12%
    17:00 +28°C° 0 mm 5 mps 760 mmHg 12%
    18:00 +26°C° 0 mm 5 mps 760 mmHg 13%
    19:00 +25°C° 0 mm 5 mps 761 mmHg 14%
    20:00 +22°C° 0 mm 5 mps 761 mmHg 15%
    21:00 +21°C° 0 mm 5 mps 761 mmHg 15%
    22:00 +21°C° 0 mm 5 mps 761 mmHg 15%
    23:00 +20°C° 0 mm 5 mps 761 mmHg 16%
    Show more